CZ-6A DEB, 61174

Orbit data source: Space-Track

CZ-6A DEB, 61174 is space debris in LEO originally from a launch on Tue, 06 Aug 2024 UTC launched from the Taiyaun Space Center, China (TSC). Debris objects in space refer to the collection of defunct objects orbiting the Earth. Examples of debris include non-operational satellites, rocket bodies, and fragments generated from explosions, collisions, or faulty payload assembly.

Loading next visibility...
Identifier
61174, 2024-140RU
Orbit
LEO
Country
Flag of CNCN / PRC
Related business
Manufacturer
SAST
Mission
Spacecraft
Bus & Motor
Unknown
Mass
Unknown
Launch date (UTC)
2024-08-06 (2 years ago)
Launch vehicle
Unknown
Launch site
Taiyaun Space Center, China (TSC)
Object type
Payload
Rocket body
Debris
Shape & HBR
Unknown shape, 0.1 m
Radar Cross Section
Small (<0.1 m²)

Expand to show TLE details & history
Last TLE update: 15 hours ago

TLE from 15 hours ago
0 CZ-6A DEB
1 61174U 24140RU  26171.22427818  .00000235  00000-0  75100-4 0  9998
2 61174  88.9870 271.1951 0069526   9.2441 351.0019 14.35043858 95717
Epoch: 2026-06-20T05:22Z
TLE epoch observation values (Epoch: 2026-06-20T05:22:57.634Z)
Latitude
0.00002°
Longitude
-77.98701°
Altitude
728.873 km
Speed
7.516 km/s
True Right ascension
18h 04m 46s
True Declination
0° 00' 00"
Sunlit
Object was in full shadow at epoch
Visualization orbit readout
Latitude
Unknown
Longitude
Unknown
Altitude
Unknown
Speed
Unknown
Apparent Right ascension
Unknown
Apparent Declination
Unknown
Sunlit
N/A
Visualization observer readout
Local Sidereal Time
07:24:26
Azimuth
Unknown
Elevation
Unknown
Doppler factor
Unknown
Orbital elements
Apogee altitude
821.561 km
Perigee altitude
722.139 km
Semi-major axis
7,149.987 km
Eccentricity
0.00695
Inclination
88.987°
RAAN
271.1951°
Arg. of periapsis
9.2441°
True anomaly
350.87621°
Mean anomaly
351.0019°
Eccentric anomaly
350.93917°
Mean motion
3.58992 °/min
Orbital period
100.28 mins
BSTAR
0.0000751
Loading maneuver chart data...
Computing Atmospheric mass density...
Loading historical data...
Loading historical data...
Loading historical data...
Loading historical data...
Loading historical data...
Loading historical data...
Loading historical data...

Documentation

Showing up to 5 results
|